Location: Del Oro Observatory
(38.3044°N, 104.8119°W)
Time: 00:55:30
(UTC-07:00)

Daily predictions for brighter satellites

Satellite Brightness Start Highest point End
(mag) Time Altitude Azimuth Time Altitude Azimuth Time Altitude Azimuth
Lacrosse 5 rocket 3.5 03:59:41 27° ENE 03:59:41 27° ENE 04:02:00 10° NE
Atlas Centaur 2 3.4 03:58:47 46° S 03:58:47 46° S 04:06:42 10° ESE
SL-16 R/B 2.7 04:11:34 52° NNE 04:11:34 52° NNE 04:15:49 10° NNE
Cosmos 2123 Rocket 4.0 04:10:06 10° S 04:16:18 77° E 04:22:34 10° N
Cosmos 1725 Rocket 4.1 04:13:18 10° N 04:19:29 70° E 04:25:38 10° SSE
CZ-2C R/B 4.3 04:26:32 10° SSE 04:30:55 53° ENE 04:32:35 33° NNE
Cosmos 1503 Rocket 4.1 04:32:03 48° N 04:33:27 72° ENE 04:38:36 10° SSE
CZ-4B R/B 3.1 04:28:12 10° N 04:33:52 77° WNW 04:39:29 10° SSW
Cosmos 2084 Rocket 4.3 04:34:31 39° NE 04:34:31 39° NE 04:38:07 10° ESE
Meteor 1-26 Rocket 4.3 04:30:33 20° N 04:34:31 76° E 04:40:10 10° SSE
Cosmos 2369 Rocket 4.4 04:32:35 10° N 04:36:37 20° NE 04:40:40 10° E
Cosmos 2297 3.5 04:36:24 64° NW 04:37:13 77° WSW 04:42:55 10° SSE
USA 229 DEB 3.8 04:36:41 31° NNW 04:40:30 82° ENE 04:47:53 10° SE
USA 229 3.8 04:36:45 31° NNW 04:40:36 82° ENE 04:47:58 10° SE
SL-8 R/B 4.2 04:39:33 45° S 04:40:38 57° SE 04:45:19 10° ENE
Cosmos 2016 Rocket 3.9 04:41:19 54° WSW 04:41:19 54° WSW 04:46:56 10° SSW
Cosmos 2278 Rocket 4.3 04:47:24 12° SSW 04:47:24 12° SSW 04:47:56 10° SSW
IRS-1C Rocket 3.9 04:38:29 10° N 04:43:44 72° WNW 04:48:57 10° SSW
Meteor 2-12 Rocket 4.3 04:41:28 10° N 04:47:32 76° W 04:53:34 10° S
IDEFIX/ARIANE 42P 4.2 04:44:27 10° NNE 04:49:12 35° E 04:53:54 10° SSE
Cosmos 1862 Rocket 3.5 04:50:03 68° WSW 04:50:03 68° WSW 04:54:14 10° S
Meteor 1-28 Rocket 3.1 04:48:54 10° SSE 04:52:40 88° ENE 04:52:45 84° NNE
EO 1 Del DPAF 3.9 04:57:22 10° SSE 05:01:06 54° ENE 05:04:46 11° N
Delta 2 Rocket 3.8 05:01:55 42° SW 05:02:29 46° SSW 05:06:42 10° ESE
Landsat 4 3.5 04:59:28 10° S 05:03:10 78° WSW 05:03:56 54° NNW
Celestis-02/Orion 38 4.4 05:00:36 10° SSE 05:05:47 77° WSW 05:09:07 22° NNW
Okean 1-7 4.0 05:06:28 10° N 05:10:44 47° E 05:14:55 10° SSE
Cosmos 1354 Rocket 4.1 05:08:59 31° NW 05:11:07 50° WSW 05:16:09 10° S
Hubble Space Telescope 2.7 05:11:14 16° SSW 05:12:57 21° S 05:16:04 10° SE
Cosmos 1943 Rocket 4.2 05:10:18 10° N 05:14:59 26° ENE 05:19:38 10° ESE
USA 215 4.5 05:10:02 10° ENE 05:16:10 42° SE 05:22:15 10° SSW
USA 32 4.0 05:11:51 10° SSW 05:16:57 55° W 05:22:05 10° N
CZ-3B R/B 2.3 05:17:43 27° SW 05:19:03 75° SE 05:20:50 10° NE
Cosmos 1943 4.0 05:13:42 10° S 05:19:14 55° ESE 05:24:46 10° NNE
SKYMED 2 3.5 05:15:57 10° SSE 05:20:17 88° WSW 05:24:39 10° NNW
Abrixas rocket 4.4 05:22:19 13° N 05:22:44 14° N 05:24:28 10° NE
Cosmos 1825 2.0 05:21:09 10° SSW 05:24:54 70° W 05:28:40 10° N
ATLAS 5 CENTAUR R/B 2.2 05:23:59 10° SSW 05:28:25 61° ESE 05:33:15 10° NE
Cosmos 2233 Rocket 4.1 05:23:58 10° NNW 05:29:52 50° W 05:35:44 10° SSW
DELTA 2 R/B (1) 3.6 05:29:20 23° W 05:32:52 79° SSW 05:38:27 10° ESE
Lacrosse 5 rocket 2.7 05:35:26 22° WNW 05:36:59 27° NW 05:40:56 10° NNE
Cosmos 2221 Rocket 3.6 05:32:51 10° N 05:37:20 88° ENE 05:41:51 10° S
Meteor 1-27 Rocket 4.4 05:33:11 10° N 05:38:58 60° ENE 05:44:36 10° SSE
Okean-O 2.9 05:35:19 10° N 05:39:33 45° WNW 05:43:46 10° SW
Meteor 2-3 Rocket 4.5 05:36:44 10° SW 05:41:41 29° WNW 05:46:37 10° NNW
SJ-12 4.5 05:38:06 10° NNE 05:42:11 61° E 05:46:13 10° S
Meteor 1-10 Rocket 4.3 05:40:37 10° NNW 05:46:32 70° W 05:52:24 10° S
Atlas Centaur 2 4.1 05:41:26 12° WSW 05:47:59 33° SSW 05:55:19 10° SE
Cosmos 1441 Rocket 3.2 05:44:50 10° N 05:48:37 81° E 05:52:20 10° S
Cosmos 1703 Rocket 4.0 05:44:57 10° NNW 05:49:01 40° W 05:53:04 10° SSW
Cosmos 1606 3.1 05:45:57 10° NNW 05:49:31 39° W 05:53:06 10° SSW
Cosmos 1869 Rocket 3.9 05:48:17 10° SSW 05:52:24 42° W 05:56:37 10° N
SL-16 R/B 3.7 05:53:33 14° WNW 05:54:58 15° NW 05:58:04 10° NNW
Cosmos 1513 Rocket 4.4 05:51:28 10° N 05:57:34 84° W 06:03:37 10° S
COSMOS 2441 4.4 05:52:50 10° NNE 05:57:46 88° WNW 06:02:38 10° SSW
Cosmos 1603 4.2 05:54:10 10° SW 05:59:20 36° WNW 06:04:33 10° N
Cosmos 1777 Rocket 4.2 05:54:33 10° NNW 05:59:47 74° ENE 06:04:58 10° SSE
Intercosmos 25 4.1 05:57:20 10° NNW 06:00:30 33° W 06:04:39 10° SSW
Cosmos 1782 3.6 05:58:40 10° NNW 06:02:08 29° W 06:05:34 10° SSW
SMAP 4.1 05:58:32 10° NNE 06:03:04 51° E 06:07:35 10° S
Cosmos 1408 4.1 06:05:43 10° WSW 06:08:14 17° WNW 06:10:45 10° NNW
COSMO-SKYMED 1 3.7 06:04:58 10° SSW 06:08:30 24° W 06:12:04 10° NW
Cosmos 1891 Rocket 4.4 06:03:40 10° NNW 06:09:40 68° W 06:15:43 10° S
NOSS 3-1 (C) 4.4 06:02:47 10° NW 06:10:22 55° WSW 06:18:36 10° S
CZ-2C R/B 2.7 06:05:53 10° N 06:10:52 49° WNW 06:15:43 10° SW
PSLV R/B 3.5 06:16:31 10° WNW 06:19:36 49° N 06:22:44 10° ENE
Cosmos 405 Rocket 3.5 06:16:23 10° NNW 06:19:38 29° W 06:22:53 10° SSW
Ariane Rocket 3.2 06:15:53 10° NNE 06:20:58 81° ESE 06:26:00 10° SSW
Cosmos 2369 Rocket 2.3 06:15:34 10° NNW 06:21:02 58° WSW 06:26:30 10° S
ATLAS 2AS CENTAUR R/B 4.3 06:14:07 10° NNW 06:21:13 33° NE 06:27:51 10° ESE
